Time,TemperatureF,DewpointF,PressureIn,WindDirection,WindDirectionDegrees,WindSpeedMPH,WindSpeedGustMPH,Humidity,HourlyPrecipIn,Conditions,Clouds,dailyrainin,SoftwareType,DateUTC
2013-02-17 00:02:00,28.0,16.0,29.75,WNW,301,3.0,7.0,61,0.00,,,0.07,,2013-02-17 05:02:00,
2013-02-17 00:12:00,28.0,16.0,29.75,WNW,290,4.0,7.0,61,0.00,,,0.07,,2013-02-17 05:12:00,
2013-02-17 00:22:00,28.0,16.0,29.75,WNW,290,4.0,7.0,61,0.00,,,0.07,,2013-02-17 05:22:00,
2013-02-17 00:33:00,28.0,16.0,29.75,NW,320,3.0,8.0,59,0.00,,,0.07,,2013-02-17 05:33:00,
2013-02-17 00:42:00,28.0,16.0,29.75,NW,320,3.0,8.0,59,0.00,,,0.07,,2013-02-17 05:42:00,
2013-02-17 00:52:00,27.0,14.0,29.72,NW,309,3.0,7.0,58,0.00,,,0.07,,2013-02-17 05:52:00,
2013-02-17 01:02:00,27.0,13.0,29.72,West,275,5.0,8.0,55,0.00,,,0.07,,2013-02-17 06:02:00,
2013-02-17 01:11:00,27.0,13.0,29.72,West,275,5.0,8.0,55,0.00,,,0.07,,2013-02-17 06:11:00,
2013-02-17 01:21:00,27.0,12.0,29.71,West,274,2.0,8.0,53,0.00,,,0.07,,2013-02-17 06:21:00,
2013-02-17 01:32:00,27.0,12.0,29.73,WNW,297,3.0,6.0,53,0.00,,,0.07,,2013-02-17 06:32:00,
2013-02-17 01:42:00,27.0,12.0,29.73,WNW,297,3.0,6.0,53,0.00,,,0.07,,2013-02-17 06:42:00,
2013-02-17 01:52:00,26.0,10.0,29.72,WNW,290,3.0,5.0,50,0.00,,,0.07,,2013-02-17 06:52:00,
2013-02-17 02:01:00,26.0,10.0,29.71,NW,326,3.0,5.0,50,0.00,,,0.07,,2013-02-17 07:01:00,
2013-02-17 02:11:00,26.0,10.0,29.71,NW,326,3.0,5.0,50,0.00,,,0.07,,2013-02-17 07:11:00,
2013-02-17 02:21:00,26.0,9.0,29.69,NW,311,2.0,5.0,49,0.00,,,0.07,,2013-02-17 07:21:00,
2013-02-17 02:32:00,26.0,9.0,29.69,NW,308,3.0,8.0,49,0.00,,,0.07,,2013-02-17 07:32:00,
2013-02-17 02:42:00,26.0,9.0,29.69,NW,308,3.0,8.0,49,0.00,,,0.07,,2013-02-17 07:42:00,
2013-02-17 02:52:00,25.0,9.0,29.68,WNW,301,4.0,7.0,49,0.00,,,0.07,,2013-02-17 07:52:00,
2013-02-17 03:01:00,25.0,9.0,29.68,ESE,114,2.0,8.0,49,0.00,,,0.07,,2013-02-17 08:01:00,
2013-02-17 03:11:00,25.0,9.0,29.68,ESE,114,2.0,8.0,49,0.00,,,0.07,,2013-02-17 08:11:00,
2013-02-17 03:21:00,25.0,9.0,29.67,West,273,4.0,10.0,49,0.00,,,0.07,,2013-02-17 08:21:00,
2013-02-17 03:32:00,25.0,8.0,29.67,NNE,13,3.0,8.0,48,0.00,,,0.07,,2013-02-17 08:32:00,
2013-02-17 03:42:00,25.0,8.0,29.67,NNE,13,3.0,8.0,48,0.00,,,0.07,,2013-02-17 08:42:00,
2013-02-17 03:52:00,24.0,10.0,29.65,WNW,295,4.0,8.0,55,0.00,,,0.07,,2013-02-17 08:52:00,
2013-02-17 04:02:00,24.0,11.0,29.65,NW,317,2.0,6.0,57,0.00,,,0.07,,2013-02-17 09:02:00,
2013-02-17 04:11:00,24.0,11.0,29.65,NW,317,2.0,6.0,57,0.00,,,0.07,,2013-02-17 09:11:00,
2013-02-17 04:21:00,24.0,12.0,29.64,WNW,290,3.0,7.0,60,0.00,,,0.07,,2013-02-17 09:21:00,
2013-02-17 04:32:00,24.0,12.0,29.64,NW,308,5.0,11.0,60,0.00,,,0.07,,2013-02-17 09:32:00,
2013-02-17 04:42:00,24.0,12.0,29.64,NW,308,5.0,11.0,60,0.00,,,0.07,,2013-02-17 09:42:00,
2013-02-17 04:52:00,23.0,12.0,29.61,WNW,296,3.0,9.0,62,0.00,,,0.07,,2013-02-17 09:52:00,
2013-02-17 05:01:00,23.0,12.0,29.62,NW,318,2.0,10.0,62,0.00,,,0.07,,2013-02-17 10:01:00,
2013-02-17 05:11:00,23.0,12.0,29.62,NW,318,2.0,10.0,62,0.00,,,0.07,,2013-02-17 10:11:00,
2013-02-17 05:21:00,23.0,13.0,29.62,ENE,60,3.0,9.0,66,0.00,,,0.07,,2013-02-17 10:21:00,
2013-02-17 05:32:00,22.0,13.0,29.62,NNW,342,3.0,8.0,68,0.00,,,0.07,,2013-02-17 10:32:00,
2013-02-17 05:42:00,22.0,13.0,29.62,NNW,342,3.0,8.0,68,0.00,,,0.07,,2013-02-17 10:42:00,
2013-02-17 05:52:00,21.0,15.0,29.61,NW,322,4.0,10.0,76,0.00,,,0.07,,2013-02-17 10:52:00,
2013-02-17 06:01:00,20.0,15.0,29.59,WNW,301,5.0,10.0,81,0.00,,,0.07,,2013-02-17 11:01:00,
2013-02-17 06:11:00,20.0,15.0,29.59,WNW,301,5.0,10.0,81,0.00,,,0.07,,2013-02-17 11:11:00,
2013-02-17 06:22:00,19.0,16.0,29.58,West,260,4.0,9.0,87,0.00,,,0.07,,2013-02-17 11:22:00,
2013-02-17 06:32:00,19.0,16.0,29.58,NNW,347,3.0,9.0,88,0.00,,,0.07,,2013-02-17 11:32:00,
2013-02-17 06:42:00,19.0,16.0,29.58,NNW,347,3.0,9.0,88,0.00,,,0.07,,2013-02-17 11:42:00,
2013-02-17 06:53:00,18.0,15.0,29.57,NNE,18,3.0,10.0,89,0.00,,,0.07,,2013-02-17 11:53:00,
2013-02-17 07:03:00,18.0,15.0,29.55,WNW,302,4.0,11.0,89,0.00,,,0.07,,2013-02-17 12:03:00,
2013-02-17 07:11:00,18.0,15.0,29.55,WNW,302,4.0,11.0,89,0.00,,,0.07,,2013-02-17 12:11:00,
2013-02-17 07:22:00,18.0,15.0,29.54,West,271,4.0,7.0,89,0.00,,,0.07,,2013-02-17 12:22:00,
2013-02-17 07:32:00,18.0,15.0,29.54,NNW,345,4.0,11.0,89,0.00,,,0.07,,2013-02-17 12:32:00,
2013-02-17 07:42:00,18.0,15.0,29.54,NNW,345,4.0,11.0,89,0.00,,,0.07,,2013-02-17 12:42:00,
2013-02-17 07:52:00,18.0,16.0,29.52,West,274,4.0,11.0,90,0.00,,,0.07,,2013-02-17 12:52:00,
2013-02-17 08:02:00,17.0,15.0,29.52,WNW,293,4.0,9.0,90,0.00,,,0.07,,2013-02-17 13:02:00,
2013-02-17 08:12:00,17.0,15.0,29.52,WNW,293,4.0,9.0,90,0.00,,,0.07,,2013-02-17 13:12:00,
2013-02-17 08:22:00,17.0,14.0,29.51,NNW,340,4.0,9.0,89,0.00,,,0.07,,2013-02-17 13:22:00,
2013-02-17 08:32:00,17.0,14.0,29.50,NNW,331,5.0,11.0,89,0.00,,,0.07,,2013-02-17 13:32:00,
2013-02-17 08:42:00,17.0,14.0,29.50,NNW,331,5.0,11.0,89,0.00,,,0.07,,2013-02-17 13:42:00,
2013-02-17 08:52:00,17.0,14.0,29.48,NW,309,5.0,11.0,89,0.00,,,0.07,,2013-02-17 13:52:00,
2013-02-17 09:01:00,17.0,14.0,29.48,WNW,293,4.0,13.0,89,0.00,,,0.07,,2013-02-17 14:01:00,
2013-02-17 09:11:00,17.0,14.0,29.48,WNW,293,4.0,13.0,89,0.00,,,0.07,,2013-02-17 14:11:00,
2013-02-17 09:22:00,17.0,14.0,29.47,WNW,291,5.0,14.0,89,0.00,,,0.07,,2013-02-17 14:22:00,
2013-02-17 09:32:00,17.0,14.0,29.46,NW,321,5.0,13.0,88,0.00,,,0.07,,2013-02-17 14:32:00,
2013-02-17 09:42:00,17.0,14.0,29.46,NW,321,5.0,13.0,88,0.00,,,0.07,,2013-02-17 14:42:00,
2013-02-17 09:53:00,17.0,14.0,29.44,North,355,5.0,12.0,88,0.00,,,0.07,,2013-02-17 14:53:00,
2013-02-17 10:02:00,17.0,14.0,29.44,NW,311,7.0,12.0,88,0.00,,,0.07,,2013-02-17 15:02:00,
2013-02-17 10:11:00,17.0,14.0,29.44,NW,311,7.0,12.0,88,0.00,,,0.07,,2013-02-17 15:11:00,
2013-02-17 10:22:00,18.0,15.0,29.44,NW,326,5.0,13.0,88,0.00,,,0.07,,2013-02-17 15:22:00,
2013-02-17 10:32:00,18.0,15.0,29.44,NW,318,5.0,13.0,88,0.00,,,0.07,,2013-02-17 15:32:00,
2013-02-17 10:42:00,18.0,15.0,29.44,NW,318,5.0,13.0,88,0.00,,,0.07,,2013-02-17 15:42:00,
2013-02-17 10:52:00,18.0,15.0,29.42,WNW,286,5.0,12.0,87,0.00,,,0.07,,2013-02-17 15:52:00,
2013-02-17 11:01:00,18.0,14.0,29.43,NW,314,4.0,11.0,85,0.00,,,0.07,,2013-02-17 16:01:00,
2013-02-17 11:12:00,18.0,14.0,29.43,NW,314,4.0,11.0,85,0.00,,,0.07,,2013-02-17 16:12:00,
2013-02-17 11:22:00,19.0,14.0,29.41,West,266,5.0,10.0,80,0.00,,,0.07,,2013-02-17 16:22:00,
2013-02-17 11:32:00,19.0,13.0,29.41,WNW,296,6.0,13.0,78,0.00,,,0.07,,2013-02-17 16:32:00,
2013-02-17 11:42:00,19.0,13.0,29.41,WNW,296,6.0,13.0,78,0.00,,,0.07,,2013-02-17 16:42:00,
2013-02-17 11:52:00,19.0,13.0,29.41,NW,305,6.0,17.0,77,0.00,,,0.07,,2013-02-17 16:52:00,
2013-02-17 12:02:00,19.0,12.0,29.40,NW,304,7.0,13.0,73,0.00,,,0.07,,2013-02-17 17:02:00,
2013-02-17 12:11:00,19.0,12.0,29.40,NW,304,7.0,13.0,73,0.00,,,0.07,,2013-02-17 17:11:00,
2013-02-17 12:21:00,20.0,12.0,29.41,NW,309,4.0,11.0,72,0.00,,,0.05,,2013-02-17 17:21:00,
2013-02-17 12:32:00,20.0,11.0,29.41,WNW,291,7.0,16.0,69,0.00,,,0.05,,2013-02-17 17:32:00,
2013-02-17 12:42:00,20.0,11.0,29.41,WNW,291,7.0,16.0,69,0.00,,,0.05,,2013-02-17 17:42:00,
2013-02-17 12:52:00,20.0,11.0,29.41,WNW,301,5.0,10.0,69,0.00,,,0.05,,2013-02-17 17:52:00,
2013-02-17 13:02:00,20.0,11.0,29.41,WNW,301,5.0,10.0,69,0.00,,,0.05,,2013-02-17 18:02:00,
2013-02-17 13:11:00,20.0,11.0,29.41,WNW,301,5.0,10.0,69,0.00,,,0.05,,2013-02-17 18:11:00,
2013-02-17 13:22:00,20.0,11.0,29.41,WNW,293,6.0,19.0,68,0.00,,,0.02,,2013-02-17 18:22:00,
2013-02-17 13:33:00,20.0,11.0,29.41,NW,323,9.0,16.0,67,0.00,,,0.02,,2013-02-17 18:33:00,
2013-02-17 13:42:00,20.0,11.0,29.41,NW,323,9.0,16.0,67,0.00,,,0.02,,2013-02-17 18:42:00,
2013-02-17 13:52:00,20.0,11.0,29.42,WNW,290,8.0,17.0,66,0.00,,,0.02,,2013-02-17 18:52:00,
2013-02-17 14:01:00,21.0,10.0,29.41,WNW,289,6.0,20.0,62,0.00,,,0.02,,2013-02-17 19:01:00,
2013-02-17 14:11:00,21.0,10.0,29.41,WNW,289,6.0,20.0,62,0.00,,,0.02,,2013-02-17 19:11:00,
2013-02-17 14:22:00,21.0,9.0,29.42,WNW,303,7.0,15.0,58,0.00,,,0.02,,2013-02-17 19:22:00,
2013-02-17 14:32:00,22.0,8.0,29.42,NW,304,6.0,15.0,54,0.00,,,0.01,,2013-02-17 19:32:00,
2013-02-17 14:42:00,22.0,8.0,29.42,NW,304,6.0,15.0,54,0.00,,,0.01,,2013-02-17 19:42:00,
2013-02-17 14:52:00,21.0,6.0,29.42,WNW,289,6.0,18.0,51,0.00,,,0.01,,2013-02-17 19:52:00,
2013-02-17 15:02:00,22.0,6.0,29.42,NW,309,6.0,13.0,50,0.00,,,0.01,,2013-02-17 20:02:00,
2013-02-17 15:11:00,22.0,6.0,29.42,NW,309,6.0,13.0,50,0.00,,,0.01,,2013-02-17 20:11:00,
2013-02-17 15:22:00,21.0,4.0,29.43,ESE,113,6.0,14.0,46,0.00,,,0.00,,2013-02-17 20:22:00,
2013-02-17 15:32:00,21.0,4.0,29.44,WNW,293,6.0,15.0,46,0.00,,,0.00,,2013-02-17 20:32:00,
2013-02-17 15:42:00,21.0,4.0,29.44,WNW,293,6.0,15.0,46,0.00,,,0.00,,2013-02-17 20:42:00,
2013-02-17 15:52:00,21.0,3.0,29.45,West,277,6.0,12.0,45,0.00,,,0.00,,2013-02-17 20:52:00,
2013-02-17 16:02:00,21.0,3.0,29.46,WNW,288,6.0,14.0,45,0.00,,,0.00,,2013-02-17 21:02:00,
2013-02-17 16:11:00,21.0,3.0,29.46,WNW,288,6.0,14.0,45,0.00,,,0.00,,2013-02-17 21:11:00,
2013-02-17 16:21:00,21.0,3.0,29.46,WNW,290,6.0,15.0,45,0.00,,,0.00,,2013-02-17 21:21:00,
2013-02-17 16:32:00,21.0,3.0,29.47,NNW,341,5.0,18.0,44,0.00,,,0.00,,2013-02-17 21:32:00,
2013-02-17 16:42:00,21.0,3.0,29.47,NNW,341,5.0,18.0,44,0.00,,,0.00,,2013-02-17 21:42:00,
2013-02-17 16:53:00,21.0,4.0,29.48,WNW,301,5.0,17.0,46,0.00,,,0.00,,2013-02-17 21:53:00,
2013-02-17 17:01:00,21.0,3.0,29.48,WNW,295,6.0,12.0,44,0.00,,,0.00,,2013-02-17 22:01:00,
2013-02-17 17:12:00,21.0,3.0,29.48,WNW,295,6.0,12.0,44,0.00,,,0.00,,2013-02-17 22:12:00,
2013-02-17 17:22:00,21.0,3.0,29.49,WNW,293,6.0,13.0,45,0.00,,,0.00,,2013-02-17 22:22:00,
2013-02-17 17:32:00,21.0,4.0,29.49,West,264,6.0,11.0,46,0.00,,,0.00,,2013-02-17 22:32:00,
2013-02-17 17:42:00,21.0,4.0,29.49,West,264,6.0,11.0,46,0.00,,,0.00,,2013-02-17 22:42:00,
2013-02-17 17:52:00,20.0,3.0,29.51,West,278,8.0,18.0,47,0.00,,,0.00,,2013-02-17 22:52:00,
2013-02-17 18:02:00,20.0,3.0,29.51,SSE,159,7.0,19.0,47,0.00,,,0.00,,2013-02-17 23:02:00,
2013-02-17 18:11:00,20.0,3.0,29.51,SSE,159,7.0,19.0,47,0.00,,,0.00,,2013-02-17 23:11:00,
2013-02-17 18:21:00,20.0,4.0,29.51,South,174,9.0,18.0,48,0.00,,,0.00,,2013-02-17 23:21:00,
2013-02-17 18:32:00,20.0,4.0,29.52,WNW,293,8.0,20.0,49,0.00,,,0.00,,2013-02-17 23:32:00,
2013-02-17 18:42:00,20.0,4.0,29.52,WNW,293,8.0,20.0,49,0.00,,,0.00,,2013-02-17 23:42:00,
2013-02-17 18:52:00,19.0,3.0,29.52,NW,316,6.0,21.0,49,0.00,,,0.00,,2013-02-17 23:52:00,
2013-02-17 19:02:00,19.0,3.0,29.53,WSW,256,7.0,18.0,50,0.00,,,0.00,,2013-02-18 00:02:00,
2013-02-17 19:12:00,19.0,3.0,29.53,WSW,256,7.0,18.0,50,0.00,,,0.00,,2013-02-18 00:12:00,
2013-02-17 19:22:00,19.0,3.0,29.54,WNW,290,8.0,15.0,49,0.00,,,0.00,,2013-02-18 00:22:00,
2013-02-17 19:32:00,19.0,3.0,29.54,West,274,7.0,17.0,50,0.00,,,0.00,,2013-02-18 00:32:00,
2013-02-17 19:42:00,19.0,3.0,29.54,West,274,7.0,17.0,50,0.00,,,0.00,,2013-02-18 00:42:00,
2013-02-17 19:52:00,19.0,3.0,29.54,NNW,343,7.0,15.0,49,0.00,,,0.00,,2013-02-18 00:52:00,
2013-02-17 20:01:00,19.0,3.0,29.54,NNW,338,6.0,15.0,48,0.00,,,0.00,,2013-02-18 01:01:00,
2013-02-17 20:12:00,19.0,3.0,29.54,NNW,338,6.0,15.0,48,0.00,,,0.00,,2013-02-18 01:12:00,
2013-02-17 20:21:00,19.0,3.0,29.55,NW,314,3.0,13.0,48,0.00,,,0.00,,2013-02-18 01:21:00,
2013-02-17 20:32:00,19.0,3.0,29.56,NW,305,4.0,17.0,49,0.00,,,0.00,,2013-02-18 01:32:00,
2013-02-17 20:42:00,19.0,3.0,29.56,NW,305,4.0,17.0,49,0.00,,,0.00,,2013-02-18 01:42:00,
2013-02-17 20:52:00,19.0,3.0,29.57,NNW,333,5.0,12.0,48,0.00,,,0.00,,2013-02-18 01:52:00,
2013-02-17 21:02:00,19.0,3.0,29.58,NW,317,4.0,12.0,49,0.00,,,0.00,,2013-02-18 02:02:00,
2013-02-17 21:11:00,19.0,3.0,29.58,NW,317,4.0,12.0,49,0.00,,,0.00,,2013-02-18 02:11:00,
2013-02-17 21:22:00,18.0,2.0,29.59,WNW,291,7.0,18.0,48,0.00,,,0.00,,2013-02-18 02:22:00,
2013-02-17 21:32:00,18.0,2.0,29.60,WNW,296,7.0,15.0,49,0.00,,,0.00,,2013-02-18 02:32:00,
2013-02-17 21:42:00,18.0,2.0,29.60,WNW,296,7.0,15.0,49,0.00,,,0.00,,2013-02-18 02:42:00,
2013-02-17 21:52:00,18.0,2.0,29.61,NW,324,5.0,11.0,49,0.00,,,0.00,,2013-02-18 02:52:00,
2013-02-17 22:02:00,18.0,3.0,29.62,NW,309,7.0,13.0,50,0.00,,,0.00,,2013-02-18 03:02:00,
2013-02-17 22:11:00,18.0,3.0,29.62,NW,309,7.0,13.0,50,0.00,,,0.00,,2013-02-18 03:11:00,
2013-02-17 22:22:00,17.0,2.0,29.63,ENE,73,2.0,13.0,52,0.00,,,0.00,,2013-02-18 03:22:00,
2013-02-17 22:32:00,17.0,2.0,29.64,NW,307,6.0,16.0,52,0.00,,,0.00,,2013-02-18 03:32:00,
2013-02-17 22:42:00,17.0,2.0,29.64,NW,307,6.0,16.0,52,0.00,,,0.00,,2013-02-18 03:42:00,
2013-02-17 22:52:00,17.0,2.0,29.65,WNW,301,7.0,17.0,52,0.00,,,0.00,,2013-02-18 03:52:00,
2013-02-17 23:01:00,16.0,2.0,29.65,NW,321,8.0,17.0,53,0.00,,,0.00,,2013-02-18 04:01:00,
2013-02-17 23:11:00,16.0,2.0,29.65,NW,321,8.0,17.0,53,0.00,,,0.00,,2013-02-18 04:11:00,
2013-02-17 23:21:00,16.0,2.0,29.66,West,273,4.0,13.0,54,0.00,,,0.00,,2013-02-18 04:21:00,
2013-02-17 23:32:00,16.0,2.0,29.67,NW,314,5.0,16.0,54,0.00,,,0.00,,2013-02-18 04:32:00,
2013-02-17 23:42:00,16.0,2.0,29.67,NW,314,5.0,16.0,54,0.00,,,0.00,,2013-02-18 04:42:00,
2013-02-17 23:52:00,16.0,2.0,29.67,North,353,6.0,17.0,54,0.00,,,0.00,,2013-02-18 04:52:00,